Llagostera





Hora UTC 22:35
Temperatura 8.2 ºC
Humitat 94.0 %
Pressió 1027.0 hPa
Pluja 0.2 mm
Velocitat vent 0.0 km/h
Direcció vent

Dades diàries 2020-10-29



Hora UTC (hivern +1h; estiu +2h)
Temperatura (ºC) Humitat (%) Pressió (hPa) Velocitat vent (km/h) Precipitació (mm)
Hora UTC Aire Humitat Pressió Vel. Dir. Vel. Max Dir. Intent. màx 5 min.
00:05 6.1 94.0 1024.9 0.0 6.4 0.0
00:10 6.2 94.0 1025.1 0.0 6.4 0.0
00:15 6.4 95.0 1025.0 0.0 6.4 0.0
00:20 6.6 95.0 1025.1 0.0 6.4 0.0
00:25 6.8 95.0 1025.1 0.0 6.4 0.0
00:30 7.0 95.0 1025.1 1.6 6.4 0.0
00:35 7.1 94.0 1025.1 3.2 6.4 0.0
00:40 7.1 94.0 1025.0 1.6 6.4 0.0
00:45 7.0 94.0 1025.1 0.0 6.4 0.0
00:50 7.0 94.0 1025.1 0.0 6.4 0.0
00:55 6.9 94.0 1025.0 0.0 6.4 0.0
01:00 6.9 94.0 1025.0 0.0 6.4 0.0
01:05 6.8 94.0 1025.0 0.0 6.4 0.0
01:10 6.8 94.0 1025.0 0.0 6.4 0.0
01:15 6.8 94.0 1025.1 0.0 6.4 0.0
01:20 6.7 94.0 1025.2 0.0 6.4 0.0
01:25 6.6 94.0 1025.2 0.0 6.4 0.0
01:30 6.6 94.0 1025.2 0.0 6.4 0.0
01:35 6.4 94.0 1025.3 0.0 6.4 0.0
01:40 6.4 94.0 1025.2 0.0 6.4 0.0
01:45 6.3 94.0 1025.2 0.0 6.4 0.0
01:50 6.2 94.0 1025.1 1.6 6.4 0.0
01:55 6.3 94.0 1025.0 3.2 6.4 0.0
02:00 6.6 95.0 1025.1 3.2 6.4 0.0
02:05 6.8 95.0 1025.2 1.6 6.4 0.0
02:10 7.0 95.0 1025.1 1.6 6.4 0.0
02:15 7.1 94.0 1024.8 0.0 6.4 0.0
02:20 7.1 94.0 1024.8 0.0 6.4 0.0
02:25 7.1 94.0 1024.8 1.6 6.4 0.0
02:30 7.0 94.0 1025.0 0.0 6.4 0.0
02:35 7.0 94.0 1025.0 0.0 6.4 0.0
02:40 7.0 94.0 1025.0 0.0 6.4 0.0
02:45 6.8 94.0 1024.9 1.6 6.4 0.0
02:50 6.8 94.0 1025.0 1.6 6.4 0.0
02:55 6.8 94.0 1025.0 1.6 6.4 0.0
03:00 6.7 94.0 1024.9 0.0 6.4 0.0
03:05 6.6 94.0 1025.2 0.0 6.4 0.0
03:10 6.5 94.0 1025.0 0.0 6.4 0.0
03:15 6.5 94.0 1025.0 0.0 6.4 0.0
03:20 6.3 94.0 1025.2 0.0 6.4 0.0
03:25 6.2 94.0 1025.2 0.0 6.4 0.0
03:30 6.1 94.0 1025.2 0.0 6.4 0.0
03:35 5.9 94.0 1025.1 1.6 6.4 0.0
03:40 5.8 94.0 1024.9 4.8 8.0 0.0
03:45 5.8 94.0 1024.9 4.8 8.0 0.0
03:50 5.7 94.0 1025.1 3.2 8.0 0.0
03:55 5.7 94.0 1025.1 1.6 8.0 0.0
04:00 5.7 94.0 1025.2 0.0 8.0 0.0
04:05 5.7 94.0 1025.3 1.6 8.0 0.0
04:10 5.7 94.0 1025.3 1.6 8.0 0.0
04:15 5.9 95.0 1025.5 1.6 8.0 0.0
04:20 6.1 95.0 1025.6 1.6 8.0 0.0
04:25 6.1 95.0 1025.7 0.0 8.0 0.0
04:30 6.1 95.0 1025.7 0.0 8.0 0.0
04:35 6.0 94.0 1025.7 0.0 8.0 0.0
04:40 5.9 94.0 1025.6 1.6 8.0 0.0
04:45 6.1 95.0 1025.8 3.2 8.0 0.0
04:50 6.1 95.0 1025.9 1.6 8.0 0.0
04:55 6.1 95.0 1025.9 1.6 8.0 0.0
05:00 6.2 95.0 1025.7 0.0 8.0 0.2
05:05 6.4 95.0 1025.8 0.0 8.0 0.0
05:10 6.4 95.0 1025.9 0.0 8.0 0.0
05:15 6.4 95.0 1025.9 0.0 8.0 0.0
05:20 6.6 95.0 1025.8 0.0 8.0 0.0
05:25 6.7 95.0 1025.8 0.0 8.0 0.0
05:30 6.7 95.0 1025.7 0.0 8.0 0.0
05:35 6.8 95.0 1025.9 0.0 8.0 0.0
05:40 6.8 95.0 1025.8 0.0 8.0 0.0
05:45 6.9 95.0 1025.8 0.0 8.0 0.0
05:50 6.9 95.0 1025.8 0.0 8.0 0.0
05:55 7.0 95.0 1025.9 0.0 8.0 0.0
06:00 6.9 95.0 1025.9 0.0 8.0 0.0
06:05 7.1 95.0 1025.8 0.0 8.0 0.0
06:10 7.1 95.0 1025.9 0.0 8.0 0.0
06:15 7.1 95.0 1025.9 0.0 8.0 0.0
06:20 7.2 95.0 1025.9 1.6 8.0 0.0
06:25 7.3 95.0 1026.0 1.6 8.0 0.0
06:30 7.3 95.0 1026.0 1.6 8.0 0.0
06:35 7.4 95.0 1025.9 1.6 8.0 0.0
06:40 7.6 95.0 1025.9 3.2 8.0 0.0
06:45 7.6 95.0 1025.9 3.2 8.0 0.0
06:50 7.8 95.0 1026.0 3.2 8.0 0.0
06:55 7.9 95.0 1026.2 1.6 8.0 0.0
07:00 8.1 95.0 1026.3 0.0 8.0 0.0
07:05 8.1 95.0 1026.3 0.0 8.0 0.0
07:10 8.2 95.0 1026.6 0.0 8.0 0.0
07:15 8.2 95.0 1026.7 0.0 8.0 0.0
07:20 8.3 95.0 1026.7 0.0 8.0 0.0
07:25 8.4 95.0 1026.7 0.0 8.0 0.0
07:30 8.6 95.0 1026.8 0.0 8.0 0.0
07:35 8.6 95.0 1026.8 0.0 8.0 0.0
07:40 8.8 95.0 1026.7 0.0 8.0 0.0
07:45 9.2 96.0 1027.0 0.0 8.0 0.0
07:50 9.2 96.0 1027.0 0.0 8.0 0.0
07:55 9.4 96.0 1026.9 0.0 8.0 0.0
08:00 9.9 96.0 1026.9 0.0 8.0 0.0
08:05 9.9 96.0 1026.9 0.0 8.0 0.0
08:10 10.3 96.0 1026.8 0.0 8.0 0.0
08:15 10.7 96.0 1026.7 1.6 8.0 0.0
08:20 11.0 96.0 1026.8 3.2 8.0 0.0
08:25 11.3 96.0 1026.8 1.6 8.0 0.0
08:30 11.7 96.0 1027.0 0.0 8.0 0.0
08:35 11.7 96.0 1027.0 0.0 8.0 0.0
08:40 11.8 95.0 1027.0 1.6 8.0 0.0
08:45 11.8 95.0 1026.9 1.6 8.0 0.0
08:50 11.8 94.0 1026.9 1.6 8.0 0.0
08:55 12.2 94.0 1027.1 1.6 8.0 0.0
09:00 12.2 94.0 1027.1 1.6 8.0 0.0
09:05 12.6 93.0 1027.2 1.6 8.0 0.0
09:10 13.2 91.0 1027.5 1.6 8.0 0.0
09:15 13.2 91.0 1027.5 1.6 8.0 0.0
09:20 13.4 90.0 1027.5 3.2 8.0 0.0
09:25 13.7 90.0 1027.4 4.8 8.0 0.0
09:30 13.9 89.0 1027.5 3.2 8.0 0.0
09:35 14.3 88.0 1027.6 3.2 8.0 0.0
09:40 14.6 87.0 1027.5 3.2 8.0 0.0
09:45 14.6 87.0 1027.5 3.2 8.0 0.0
09:50 14.7 87.0 1027.6 3.2 8.0 0.0
09:55 14.8 87.0 1027.5 3.2 8.0 0.0
10:00 14.9 87.0 1027.5 1.6 8.0 0.0
10:05 14.9 87.0 1027.4 1.6 8.0 0.0
10:10 14.9 87.0 1027.4 1.6 8.0 0.0
10:15 15.2 88.0 1027.2 3.2 8.0 0.0
10:20 15.8 89.0 1027.2 3.2 11.3 0.0
10:25 15.8 89.0 1027.2 3.2 11.3 0.0
10:30 16.6 86.0 1027.2 4.8 11.3 0.0
10:35 17.3 85.0 1027.2 4.8 11.3 0.0
10:40 17.8 82.0 1027.2 6.4 19.3 0.0
10:45 18.2 80.0 1027.1 9.7 24.1 0.0
10:50 18.6 79.0 1027.1 12.9 24.1 0.0
10:55 18.8 78.0 1027.0 11.3 24.1 0.0
11:00 18.9 77.0 1026.9 11.3 24.1 0.0
11:05 19.3 77.0 1027.0 9.7 24.1 0.0
11:10 19.3 77.0 1027.0 9.7 24.1 0.0
11:15 19.2 76.0 1026.9 11.3 25.7 0.0
11:20 19.0 77.0 1026.9 9.7 25.7 0.0
11:25 19.0 77.0 1026.9 9.7 25.7 0.0
11:30 18.9 77.0 1026.9 8.0 25.7 0.0
11:35 18.8 78.0 1026.7 12.9 25.7 0.0
11:40 18.8 78.0 1026.7 12.9 25.7 0.0
11:45 19.1 77.0 1026.7 12.9 25.7 0.0
11:50 19.1 78.0 1026.6 12.9 25.7 0.0
11:55 19.4 76.0 1026.4 16.1 25.7 0.0
12:00 19.4 76.0 1026.4 16.1 25.7 0.0
12:05 19.6 77.0 1026.4 12.9 25.7 0.0
12:10 19.5 77.0 1026.3 12.9 25.7 0.0
12:15 19.5 76.0 1026.2 12.9 27.4 0.0
12:20 19.5 76.0 1026.2 12.9 27.4 0.0
12:25 19.4 78.0 1026.1 11.3 27.4 0.0
12:30 19.7 77.0 1026.0 9.7 27.4 0.0
12:35 19.9 76.0 1025.9 11.3 27.4 0.0
12:40 19.9 76.0 1025.9 11.3 27.4 0.0
12:45 20.1 75.0 1025.7 11.3 27.4 0.0
12:50 20.1 75.0 1025.7 11.3 27.4 0.0
12:55 20.2 75.0 1025.4 11.3 27.4 0.0
13:00 20.2 75.0 1025.4 11.3 27.4 0.0
13:05 20.1 75.0 1025.3 11.3 27.4 0.0
13:10 20.1 75.0 1025.3 12.9 27.4 0.0
13:15 20.2 74.0 1025.3 9.7 27.4 0.0
13:20 20.2 74.0 1025.4 9.7 27.4 0.0
13:25 20.2 74.0 1025.4 9.7 27.4 0.0
13:30 20.2 74.0 1025.3 11.3 27.4 0.0
13:35 20.1 74.0 1025.3 12.9 27.4 0.0
13:40 20.2 75.0 1025.4 11.3 27.4 0.0
13:45 20.4 74.0 1025.3 8.0 27.4 0.0
13:50 20.4 74.0 1025.2 9.7 27.4 0.0
13:55 20.2 75.0 1025.2 12.9 27.4 0.0
14:00 20.1 75.0 1025.2 11.3 27.4 0.0
14:05 20.1 75.0 1025.2 11.3 27.4 0.0
14:10 19.9 75.0 1025.2 11.3 27.4 0.0
14:15 19.9 76.0 1025.3 9.7 27.4 0.0
14:20 19.7 76.0 1025.3 9.7 27.4 0.0
14:25 19.4 77.0 1025.2 11.3 27.4 0.0
14:30 19.3 77.0 1025.2 11.3 27.4 0.0
14:35 19.5 77.0 1025.3 8.0 27.4 0.0
14:40 19.5 77.0 1025.3 8.0 27.4 0.0
14:45 19.7 77.0 1025.3 9.7 27.4 0.0
14:50 19.7 77.0 1025.3 9.7 27.4 0.0
14:55 19.7 77.0 1025.2 8.0 27.4 0.0
15:00 19.7 76.0 1025.4 8.0 27.4 0.0
15:05 19.6 77.0 1025.3 9.7 27.4 0.0
15:10 19.6 77.0 1025.3 9.7 27.4 0.0
15:15 19.6 78.0 1025.4 8.0 27.4 0.0
15:20 19.5 78.0 1025.3 8.0 27.4 0.0
15:25 19.2 79.0 1025.4 6.4 27.4 0.0
15:30 19.2 79.0 1025.4 6.4 27.4 0.0
15:35 19.0 79.0 1025.3 8.0 27.4 0.0
15:40 18.9 80.0 1025.4 8.0 27.4 0.0
15:45 18.6 81.0 1025.4 6.4 27.4 0.0
15:50 18.6 81.0 1025.4 6.4 27.4 0.0
15:55 18.4 82.0 1025.4 8.0 27.4 0.0
16:00 18.2 82.0 1025.4 6.4 27.4 0.0
16:05 18.0 82.0 1025.4 6.4 27.4 0.0
16:10 17.8 83.0 1025.4 6.4 27.4 0.0
16:15 17.8 83.0 1025.4 6.4 27.4 0.0
16:20 17.8 83.0 1025.4 6.4 27.4 0.0
16:25 17.6 84.0 1025.4 4.8 27.4 0.0
16:30 17.4 84.0 1025.4 4.8 27.4 0.0
16:35 17.3 84.0 1025.5 4.8 27.4 0.0
16:40 17.1 85.0 1025.5 4.8 27.4 0.0
16:45 17.1 85.0 1025.5 4.8 27.4 0.0
16:50 16.9 85.0 1025.5 4.8 27.4 0.0
16:55 16.7 85.0 1025.5 3.2 27.4 0.0
17:00 16.5 86.0 1025.6 3.2 27.4 0.0
17:05 16.3 86.0 1025.6 3.2 27.4 0.0
17:10 16.1 86.0 1025.8 3.2 27.4 0.0
17:15 15.9 86.0 1025.8 3.2 27.4 0.0
17:20 15.7 86.0 1025.9 3.2 27.4 0.0
17:25 15.2 86.0 1025.9 1.6 27.4 0.0
17:30 15.2 86.0 1025.9 1.6 27.4 0.0
17:35 14.9 87.0 1025.9 1.6 27.4 0.0
17:40 14.6 87.0 1026.0 1.6 27.4 0.0
17:45 14.1 88.0 1026.0 0.0 27.4 0.0
17:50 14.1 88.0 1026.0 0.0 27.4 0.0
17:55 13.8 88.0 1026.1 0.0 27.4 0.0
18:00 13.6 89.0 1026.1 0.0 27.4 0.0
18:05 13.2 89.0 1026.2 0.0 27.4 0.0
18:10 13.1 89.0 1026.2 0.0 27.4 0.0
18:15 12.9 89.0 1026.4 0.0 27.4 0.0
18:20 12.9 89.0 1026.4 0.0 27.4 0.0
18:25 12.8 89.0 1026.4 0.0 27.4 0.0
18:30 12.6 89.0 1026.4 0.0 27.4 0.0
18:35 12.3 90.0 1026.5 0.0 27.4 0.0
18:40 12.3 90.0 1026.5 0.0 27.4 0.0
18:45 12.3 90.0 1026.5 0.0 27.4 0.0
18:50 12.2 90.0 1026.5 0.0 27.4 0.0
18:55 12.0 90.0 1026.4 0.0 27.4 0.0
19:00 11.8 90.0 1026.4 0.0 27.4 0.0
19:05 11.6 90.0 1026.4 0.0 27.4 0.0
19:15 11.3 90.0 1026.4 0.0 27.4 0.0
19:20 11.2 90.0 1026.3 0.0 27.4 0.0
19:25 11.2 90.0 1026.3 0.0 27.4 0.0
19:30 11.0 90.0 1026.4 0.0 27.4 0.0
19:35 10.9 91.0 1026.3 0.0 27.4 0.0
19:40 10.9 91.0 1026.3 0.0 27.4 0.0
19:45 10.7 91.0 1026.4 0.0 27.4 0.0
19:50 10.7 91.0 1026.4 0.0 27.4 0.0
19:55 10.4 91.0 1026.5 0.0 27.4 0.0
20:00 10.3 91.0 1026.5 0.0 27.4 0.0
20:05 10.3 91.0 1026.5 0.0 27.4 0.0
20:10 10.4 92.0 1026.5 0.0 27.4 0.0
20:15 10.5 93.0 1026.5 0.0 27.4 0.0
20:20 10.4 92.0 1026.7 0.0 27.4 0.0
20:25 10.2 92.0 1026.6 0.0 27.4 0.0
20:30 9.7 92.0 1026.7 1.6 27.4 0.0
20:35 9.7 92.0 1026.7 1.6 27.4 0.0
20:40 9.5 92.0 1026.8 1.6 27.4 0.0
20:45 9.5 92.0 1026.8 1.6 27.4 0.0
20:50 9.4 92.0 1026.9 1.6 27.4 0.0
20:55 9.2 92.0 1027.0 0.0 27.4 0.0
21:00 9.2 92.0 1027.0 0.0 27.4 0.0
21:05 9.1 93.0 1026.9 1.6 27.4 0.0
21:10 9.1 93.0 1026.9 1.6 27.4 0.0
21:15 9.1 93.0 1026.9 1.6 27.4 0.0
21:20 8.9 93.0 1026.9 1.6 27.4 0.0
21:25 8.8 93.0 1026.9 1.6 27.4 0.0
21:30 8.8 93.0 1026.9 1.6 27.4 0.0
21:35 8.8 93.0 1026.9 1.6 27.4 0.0
21:40 8.8 93.0 1026.9 0.0 27.4 0.0
21:45 8.7 93.0 1026.9 1.6 27.4 0.0
21:50 8.7 93.0 1026.9 1.6 27.4 0.0
21:55 8.6 93.0 1026.9 1.6 27.4 0.0
22:00 8.6 93.0 1026.9 0.0 27.4 0.0
22:10 8.3 93.0 1026.8 0.0 27.4 0.0
22:15 8.3 93.0 1026.8 0.0 27.4 0.0
22:20 8.2 93.0 1026.8 0.0 27.4 0.0
22:25 8.1 93.0 1026.9 0.0 27.4 0.0
22:30 8.1 94.0 1026.9 0.0 27.4 0.0
22:35 8.2 94.0 1027.0 0.0 27.4 0.0
Màxima 20.5 96.0 1027.6 16.1 27.4 0.2
Mínima 5.6 74.0 1024.8
Total 0.2